Location: ??????
(55.6130°N, 37.7882°E)
Time: 05:06:00
(UTC+00:00)

Cosmos 1933 Rocket - Pass Details

Date: 14 April 2024
Orbit: 602 x 623 km, 82.5° (Epoch: 13 May)

Event Time Altitude Azimuth Distance (km) Brightness Sun altitude
Rises 01:40:11 0° 348° (NNW) 2,903 7.2 -6.8°
Reaches altitude 10° 01:42:26 10° 351° (N) 1,989 6.4 -6.5°
Maximum altitude 01:46:50 74° 76° (ENE) 642 3.9 -6.0°
Drops below altitude 10° 01:51:10 10° 163° (SSE) 1,959 6.1 -5.4°
Sets 01:53:22 0° 165° (SSE) 2,855 6.9 -5.1°
